This is the latest recevied weather packets stored in our database for station/object K9MWD. If no packets are shown the sender has not sent any weather packets the latest 10 day(s).
| Time | Temp. | Humidity | Pressure | Rain* | Wind** | Luminosity | Snow |
|---|---|---|---|---|---|---|---|
| 1788441198 | 26.11° C | 84% | 1013.9 hPa | 0 mm | - | 98 W/m² | - |
| 1788440892 | 25.56° C | 84% | 1013.7 hPa | 0 mm | - | 57 W/m² | - |
| 1788440592 | 25.56° C | 84% | 1013.7 hPa | 0 mm | - | 47 W/m² | - |
| 1788440291 | 25.56° C | 85% | 1013.9 hPa | 0 mm | - | 38 W/m² | - |
| 1788439986 | 25.56° C | 85% | 1014 hPa | 0 mm | - | 28 W/m² | - |
| 1788439685 | 25.56° C | 85% | 1013.8 hPa | 0 mm | - | 19 W/m² | - |
| 1788439381 | 25.56° C | 85% | 1013.7 hPa | 0 mm | - | 16 W/m² | - |
| 1788439079 | 25.56° C | 85% | 1013.9 hPa | 0 mm | - | 14 W/m² | - |
| 1788438779 | 25.56° C | 85% | 1013.7 hPa | 0 mm | - | 14 W/m² | - |
| 1788438478 | 25.56° C | 85% | 1013.8 hPa | 0 mm | - | 14 W/m² | - |
| 1788438173 | 25.56° C | 85% | 1013.6 hPa | 0 mm | - | 10 W/m² | - |
| 1788437871 | 25.56° C | 84% | 1013.5 hPa | 0 mm | - | 7 W/m² | - |
| 1788437567 | 25° C | 84% | 1013.5 hPa | 0 mm | - | 6 W/m² | - |
| 1788437262 | 25° C | 84% | 1013.5 hPa | 0 mm | - | 4 W/m² | - |
| 1788436956 | 25° C | 84% | 1013.4 hPa | 0 mm | - | 2 W/m² | - |
| 1788436654 | 25° C | 84% | 1013.4 hPa | 0 mm | - | 1 W/m² | - |
| 1788436350 | 25° C | 84% | 1013.4 hPa | 0 mm | - | 0 W/m² | - |
| 1788436044 | 25° C | 84% | 1013.3 hPa | 0 mm | - | 0 W/m² | - |
| 1788435741 | 25° C | 84% | 1013.6 hPa | 0 mm | - | 0 W/m² | - |
| 1788435440 | 25° C | 84% | 1013.4 hPa | 0 mm | - | 0 W/m² | - |
| 1788435137 | 25° C | 84% | 1013.4 hPa | 0 mm | - | 0 W/m² | - |
| 1788434854 | 25° C | 84% | 1013.4 hPa | 0 mm | - | 0 W/m² | - |
| 1788434528 | 24.44° C | 85% | 1013.2 hPa | 0 mm | - | 0 W/m² | - |
| 1788434226 | 24.44° C | 85% | 1013.3 hPa | 0 mm | - | 0 W/m² | - |
| 1788433922 | 24.44° C | 85% | 1013.5 hPa | 0 mm | - | 0 W/m² | - |
* Rain latest hour (hover to see other rain measurements)
** Current wind speed in m/s (hover to see current wind gust speed)